| time (UTC) | temp C | wind direction | speed KPH | gust KPH | rain 1hr cm | rain 24hr cm | rain mn cm | humidity % | barometer mb |
| 20260902070027 | 26 | 93 | 0.0 | 3.2 | 0.00 | 0.00 | 0.00 | 74 | 1013.2 |
| 20260902064526 | 26 | 86 | 0.0 | 4.8 | 0.00 | 0.00 | 0.00 | 73 | 1013.2 |
| 20260902063030 | 26 | 83 | 0.0 | 6.4 | 0.00 | 0.00 | 0.00 | 71 | 1013.2 |
| 20260902061539 | 27 | 90 | 1.6 | 4.8 | 0.00 | 0.00 | 0.00 | 70 | 1013.3 |
| 20260902060025 | 27 | 56 | 0.0 | 3.2 | 0.00 | 0.00 | 0.00 | 69 | 1013.3 |
| 20260902054520 | 27 | 99 | 0.0 | 0.0 | 0.00 | 0.00 | 0.00 | 68 | 1013.1 |
| 20260902053021 | 27 | 99 | 0.0 | 1.6 | 0.00 | 0.00 | 0.00 | 66 | 1013.0 |
| 20260902051512 | 27 | 99 | 0.0 | 3.2 | 0.00 | 0.00 | 0.00 | 66 | 1012.9 |
| 20260902050014 | 28 | 124 | 0.0 | 4.8 | 0.00 | 0.00 | 0.00 | 66 | 1013.0 |
| 20260902044510 | 28 | 60 | 0.0 | 4.8 | 0.00 | 0.00 | 0.00 | 66 | 1013.1 |
| 20260902043014 | 28 | 93 | 0.0 | 3.2 | 0.00 | 0.00 | 0.00 | 66 | 1013.0 |
| 20260902041509 | 28 | 117 | 0.0 | 0.0 | 0.00 | 0.00 | 0.00 | 64 | 1012.8 |
| 20260902040009 | 29 | 117 | 0.0 | 1.6 | 0.00 | 0.00 | 0.00 | 62 | 1012.8 |
| 20260902034508 | 29 | 117 | 0.0 | 0.0 | 0.00 | 0.00 | 0.00 | 61 | 1012.7 |
| 20260902033011 | 29 | 117 | 0.0 | 1.6 | 0.00 | 0.00 | 0.00 | 61 | 1012.5 |
| 20260902031507 | 30 | 117 | 1.6 | 4.8 | 0.00 | 0.00 | 0.00 | 59 | 1012.4 |
| 20260902030006 | 30 | 117 | 0.0 | 1.6 | 0.00 | 0.00 | 0.00 | 58 | 1012.2 |
| 20260902024505 | 30 | 117 | 0.0 | 3.2 | 0.00 | 0.00 | 0.00 | 57 | 1011.7 |
| 20260902023004 | 30 | 96 | 0.0 | 4.8 | 0.00 | 0.00 | 0.00 | 56 | 1011.4 |
| 20260902021514 | 31 | 120 | 0.0 | 4.8 | 0.00 | 0.00 | 0.00 | 54 | 1011.2 |
| 20260902020003 | 31 | 108 | 0.0 | 3.2 | 0.00 | 0.00 | 0.00 | 52 | 1011.1 |
| 20260902014505 | 32 | 108 | 0.0 | 3.2 | 0.00 | 0.00 | 0.00 | 51 | 1010.9 |
| 20260902013002 | 32 | 123 | 0.0 | 3.2 | 0.00 | 0.00 | 0.00 | 50 | 1010.7 |
| 20260902011502 | 32 | 108 | 1.6 | 9.7 | 0.00 | 0.00 | 0.00 | 48 | 1010.6 |
| 20260902010001 | 33 | 73 | 3.2 | 11.3 | 0.00 | 0.00 | 0.00 | 47 | 1010.5 |
| 20260902004600 | 33 | 82 | 3.2 | 12.9 | 0.00 | 0.00 | 0.00 | 46 | 1010.6 |
| 20260902003100 | 34 | 227 | 0.0 | 11.3 | 0.00 | 0.00 | 0.00 | 44 | 1010.7 |
| 20260902001559 | 34 | 98 | 3.2 | 12.9 | 0.00 | 0.00 | 0.00 | 43 | 1010.7 |
| 20260902000059 | 35 | 107 | 3.2 | 12.9 | 0.00 | 0.00 | 0.00 | 43 | 1010.7 |
| 20260901234607 | 35 | 63 | 4.8 | 12.9 | 0.00 | 0.00 | 0.00 | 43 | 1010.6 |
| 20260901233103 | 35 | 39 | 3.2 | 12.9 | 0.00 | 0.00 | 0.00 | 43 | 1010.6 |
| 20260901231559 | 36 | 49 | 6.4 | 17.7 | 0.00 | 0.00 | 0.00 | 42 | 1010.6 |
| 20260901230057 | 36 | 13 | 6.4 | 12.9 | 0.00 | 0.00 | 0.00 | 41 | 1010.6 |
| 20260901224557 | 36 | 113 | 6.4 | 14.5 | 0.00 | 0.00 | 0.00 | 40 | 1010.7 |
| 20260901223054 | 35 | 69 | 6.4 | 16.1 | 0.00 | 0.00 | 0.00 | 42 | 1010.7 |
| 20260901221617 | 36 | 169 | 3.2 | 11.3 | 0.00 | 0.00 | 0.00 | 41 | 1010.7 |
| 20260901220056 | 36 | 63 | 3.2 | 14.5 | 0.00 | 0.00 | 0.00 | 42 | 1010.7 |
| 20260901214551 | 36 | 346 | 3.2 | 14.5 | 0.00 | 0.00 | 0.00 | 42 | 1010.8 |
| 20260901213107 | 37 | 355 | 6.4 | 14.5 | 0.00 | 0.00 | 0.00 | 39 | 1010.8 |
| 20260901211552 | 36 | 145 | 3.2 | 12.9 | 0.00 | 0.00 | 0.00 | 39 | 1011.1 |
| 20260901210046 | 36 | 78 | 3.2 | 14.5 | 0.00 | 0.00 | 0.00 | 40 | 1011.2 |
| 20260901204544 | 37 | 163 | 3.2 | 16.1 | 0.00 | 0.00 | 0.00 | 39 | 1011.4 |
| 20260901203053 | 36 | 103 | 1.6 | 12.9 | 0.00 | 0.00 | 0.00 | 42 | 1011.5 |
| 20260901201539 | 36 | 331 | 4.8 | 19.3 | 0.00 | 0.00 | 0.00 | 41 | 1011.8 |
| 20260901200046 | 36 | 16 | 3.2 | 11.3 | 0.00 | 0.00 | 0.00 | 43 | 1012.0 |
| 20260901194534 | 36 | 5 | 4.8 | 14.5 | 0.00 | 0.00 | 0.00 | 42 | 1012.2 |
| 20260901193040 | 36 | 328 | 1.6 | 11.3 | 0.00 | 0.00 | 0.00 | 42 | 1012.4 |
| 20260901191530 | 37 | 81 | 1.6 | 16.1 | 0.00 | 0.00 | 0.00 | 41 | 1012.6 |
| 20260901190025 | 36 | 223 | 4.8 | 11.3 | 0.00 | 0.00 | 0.00 | 43 | 1012.8 |
| 20260901184531 | 35 | 175 | 6.4 | 11.3 | 0.00 | 0.00 | 0.00 | 44 | 1013.1 |
| 20260901183020 | 35 | 111 | 0.0 | 11.3 | 0.00 | 0.00 | 0.00 | 46 | 1013.3 |
| 20260901181520 | 35 | 94 | 6.4 | 14.5 | 0.00 | 0.00 | 0.00 | 45 | 1013.6 |
| 20260901180016 | 35 | 138 | 1.6 | 14.5 | 0.00 | 0.00 | 0.00 | 48 | 1013.9 |
| 20260901174514 | 35 | 329 | 3.2 | 8.0 | 0.00 | 0.00 | 0.00 | 48 | 1014.0 |
| 20260901173012 | 35 | 140 | 3.2 | 12.9 | 0.00 | 0.00 | 0.00 | 48 | 1014.3 |
| 20260901171513 | 35 | 132 | 4.8 | 16.1 | 0.00 | 0.00 | 0.00 | 49 | 1014.5 |
| 20260901170006 | 34 | 138 | 1.6 | 8.0 | 0.00 | 0.00 | 0.00 | 53 | 1014.6 |
| 20260901164506 | 33 | 140 | 1.6 | 8.0 | 0.00 | 0.00 | 0.00 | 53 | 1014.6 |
| 20260901163003 | 34 | 26 | 3.2 | 9.7 | 0.00 | 0.00 | 0.00 | 51 | 1014.8 |
| 20260901161600 | 33 | 93 | 3.2 | 8.0 | 0.00 | 0.00 | 0.00 | 51 | 1015.0 |
| 20260901154554 | 32 | 192 | 0.0 | 6.4 | 0.00 | 0.00 | 0.00 | 58 | 1015.0 |
| 20260901153103 | 32 | 119 | 1.6 | 4.8 | 0.00 | 0.00 | 0.00 | 59 | 1014.9 |
| 20260901151546 | 31 | 148 | 1.6 | 4.8 | 0.00 | 0.00 | 0.00 | 61 | 1014.9 |
| 20260901150042 | 31 | 102 | 1.6 | 6.4 | 0.00 | 0.00 | 0.00 | 64 | 1015.1 |
| 20260901144537 | 30 | 171 | 1.6 | 8.0 | 0.00 | 0.00 | 0.00 | 68 | 1015.1 |
| 20260901143037 | 29 | 138 | 0.0 | 4.8 | 0.00 | 0.00 | 0.00 | 72 | 1015.1 |
| 20260901141539 | 28 | 158 | 1.6 | 4.8 | 0.00 | 0.00 | 0.00 | 76 | 1015.2 |
| 20260901140031 | 27 | 236 | 0.0 | 3.2 | 0.00 | 0.00 | 0.00 | 80 | 1015.4 |
| 20260901134530 | 26 | 65 | 0.0 | 1.6 | 0.00 | 0.00 | 0.00 | 85 | 1015.3 |
| 20260901133029 | 25 | 231 | 0.0 | 0.0 | 0.00 | 0.00 | 0.00 | 88 | 1015.4 |
| 20260901131527 | 23 | 231 | 0.0 | 0.0 | 0.00 | 0.00 | 0.00 | 90 | 1015.2 |
| 20260901130025 | 23 | 231 | 0.0 | 0.0 | 0.00 | 0.00 | 0.00 | 89 | 1014.8 |
| 20260901124523 | 23 | 231 | 0.0 | 0.0 | 0.00 | 0.00 | 0.00 | 87 | 1014.7 |
| 20260901123025 | 23 | 231 | 0.0 | 0.0 | 0.00 | 0.00 | 0.00 | 86 | 1014.6 |
| 20260901121523 | 23 | 231 | 0.0 | 0.0 | 0.00 | 0.00 | 0.00 | 86 | 1014.4 |
| 20260901120035 | 23 | 231 | 0.0 | 0.0 | 0.00 | 0.00 | 0.00 | 85 | 1014.3 |
| 20260901114517 | 24 | 231 | 0.0 | 0.0 | 0.00 | 0.00 | 0.00 | 85 | 1014.4 |
| 20260901113011 | 24 | 231 | 0.0 | 0.0 | 0.00 | 0.00 | 0.00 | 83 | 1014.2 |
| 20260901111509 | 24 | 231 | 0.0 | 0.0 | 0.00 | 0.00 | 0.00 | 83 | 1014.3 |
| 20260901110010 | 25 | 231 | 0.0 | 0.0 | 0.00 | 0.00 | 0.00 | 83 | 1014.2 |
| 20260901104505 | 25 | 231 | 0.0 | 0.0 | 0.00 | 0.00 | 0.00 | 83 | 1014.1 |
| 20260901103006 | 25 | 231 | 0.0 | 0.0 | 0.00 | 0.00 | 0.00 | 82 | 1014.1 |
| 20260901101503 | 25 | 182 | 0.0 | 4.8 | 0.00 | 0.00 | 0.00 | 82 | 1014.0 |
| 20260901100002 | 25 | 195 | 0.0 | 3.2 | 0.00 | 0.00 | 0.00 | 81 | 1013.9 |
| 20260901094559 | 25 | 205 | 0.0 | 4.8 | 0.00 | 0.00 | 0.00 | 80 | 1013.9 |
| 20260901093101 | 26 | 203 | 0.0 | 0.0 | 0.00 | 0.00 | 0.00 | 79 | 1014.1 |
| 20260901091605 | 26 | 190 | 0.0 | 0.0 | 0.00 | 0.00 | 0.00 | 78 | 1014.2 |
| 20260901090056 | 26 | 153 | 0.0 | 1.6 | 0.00 | 0.00 | 0.00 | 77 | 1014.0 |
| 20260901084558 | 26 | 160 | 0.0 | 6.4 | 0.00 | 0.00 | 0.00 | 77 | 1013.9 |
| 20260901083052 | 26 | 119 | 0.0 | 4.8 | 0.00 | 0.00 | 0.00 | 75 | 1013.7 |
| 20260901081549 | 26 | 169 | 0.0 | 6.4 | 0.00 | 0.00 | 0.00 | 74 | 1013.8 |
| 20260901080049 | 26 | 154 | 1.6 | 4.8 | 0.00 | 0.00 | 0.00 | 73 | 1013.9 |
| 20260901074547 | 27 | 153 | 0.0 | 8.0 | 0.00 | 0.00 | 0.00 | 73 | 1014.0 |
| 20260901073045 | 27 | 123 | 1.6 | 4.8 | 0.00 | 0.00 | 0.00 | 73 | 1014.0 |
| 20260901071556 | 27 | 115 | 1.6 | 6.4 | 0.00 | 0.00 | 0.00 | 72 | 1014.1 |